DMSP 5D-2 F13 DEB, 40521

Orbit data source: Space-Track

DMSP 5D-2 F13 DEB, 40521 is space debris in SSO originally from a launch on Fri, 24 Mar 1995 UTC launched from the Air Force Western Test Range (AFWTR). Debris objects in space refer to the collection of defunct objects orbiting the Earth. Examples of debris include non-operational satellites, rocket bodies, and fragments generated from explosions, collisions, or faulty payload assembly.

Loading next visibility...
Identifier
40521, 1995-015DH
Orbit
SSO
Country
Flag of USUS
Related business
Manufacturer
Unknown
Mission
Spacecraft
Bus & Motor
Unknown
Mass
Unknown
Launch date (UTC)
1995-03-24 (31 years ago)
Launch vehicle
Unknown
Launch site
Air Force Western Test Range (AFWTR)
Object type
Payload
Rocket body
Debris
Shape & HBR
Unknown shape, 0.1 m
Radar Cross Section
Small (<0.1 m²)

Expand to show TLE details & history
Last TLE update: 12 hours ago

TLE from 12 hours ago
0 DMSP 5D-2 F13 DEB
1 40521U 95015DH  25349.93876820  .00008387  00000-0  17856-2 0  9993
2 40521  98.5983  63.9541 0022684 306.3119  53.5985 14.59086930561506
Epoch: 2025-12-15T22:31Z
TLE epoch observation values (Epoch: 2025-12-15T22:31:49.572Z)
Latitude
0.00002°
Longitude
1.1674°
Altitude
689.594 km
Speed
7.517 km/s
True Right ascension
04h 15m 48s
True Declination
0° 00' 00"
Sunlit
Object was in full shadow at epoch
Visualization orbit readout
Latitude
Unknown
Longitude
Unknown
Altitude
Unknown
Speed
Unknown
Apparent Right ascension
Unknown
Apparent Declination
Unknown
Sunlit
N/A
Visualization observer readout
Local Sidereal Time
09:40:33
Azimuth
Unknown
Elevation
Unknown
Doppler factor
Unknown
Orbital elements
Apogee altitude
709.266 km
Perigee altitude
677.184 km
Semi-major axis
7,071.362 km
Eccentricity
0.00227
Inclination
98.5983°
RAAN
63.9541°
Arg. of periapsis
306.3119°
True anomaly
53.80807°
Mean anomaly
53.5985°
Eccentric anomaly
53.70325°
Mean motion
3.64996 °/min
Orbital period
98.63 mins
BSTAR
0.0017856
Loading maneuver chart data...
Computing Atmospheric mass density...

Documentation

Showing up to 5 results
|